Location: ActonStarParty
(42.4766°N, 71.4538°W)
Time: 09:20:42
(UTC-04:00)

ISS - Visible Passes

Search period start: 01 November 2014 00:00
Search period end: 10 November 2014 23:00
Orbit: 412 x 417 km, 51.6° (Epoch: 01 November)

Date Brightness Start Highest point End Pass type
(mag) Time Alt. Az. Time Alt. Az. Time Alt. Az.
07 Nov -0.1 05:34:48 10° SSE 05:36:44 15° SE 05:38:41 10° E visible
09 Nov -1.8 05:31:09 10° SSW 05:34:14 38° SE 05:37:20 10° ENE visible
10 Nov -0.9 04:42:16 10° S 04:44:52 22° SE 04:47:29 10° E visible
